Weather History for Sturgeon Bay, WI

Change the Weather History Date:

Saturday, January 4, 2014

  Actual Average Record
Temperature  
Mean Temperature 20 °F -  
Max Temperature 28 °F 25 °F 46 °F (2007)
Min Temperature 12 °F 10 °F -16 °F (1947)
Degree Days  
Heating Degree Days 45    
Moisture  
Dew Point 14 °F    
Average Humidity 70    
Maximum Humidity 74    
Minimum Humidity 63    
Precipitation  
Precipitation 0.00 in - - ()
Sea Level Pressure  
Sea Level Pressure 29.77 in    
Wind  
Wind Speed 15 mph (West)    
Max Wind Speed 24 mph    
Max Gust Speed 34 mph    
Visibility 10 miles    
Events      
Averages and records for this station are not official NWS values.
T = Trace of Precipitation, MM = Missing Value Source: NWS Daily Summary

Daily Weather History Graph

Daily Weather History Graph

Search for Another Location

Airport:

Trip Planner

Search our weather history database for the weather conditions in past years. The results will help you decide how hot, cold, wet, or windy it might be!

Date:

Astronomy

Jan. 04, 2014 Rise Set
Actual Time 7:27 AM CST 4:22 PM CST
Civil Twilight 6:53 AM CST 4:55 PM CST
Nautical Twilight 6:17 AM CST 5:32 PM CST
Astronomical Twilight 5:41 AM CST 6:08 PM CST
Moon 9:22 AM CST (1/4) 8:53 PM CST (1/4)
Length of Visible Light 10h 01m
Length of Day
8h 54m
Waxing Crescent, 15% of the Moon is Illuminated
Jan 4
Waxing Crescent
Jan 7
First Quarter
Jan 15
Full
Jan 23
Last Quarter
Jan 30
New

Hourly Weather History & Observations

Time (CST) Temp. Windchill Dew Point Humidity Pressure Visibility Wind Dir Wind Speed Gust Speed Precip Events Conditions
12:15 AM 17.6 °F 1.7 °F 10.4 °F 73% 29.66 in 10.0 mi South 18.4 mph 27.6 mph N/A   Clear
12:35 AM 17.6 °F 2.7 °F 10.4 °F 73% 29.65 in 10.0 mi SSW 16.1 mph 23.0 mph N/A   Clear
12:55 AM 19.4 °F 5.0 °F 10.4 °F 68% 29.65 in 10.0 mi SSW 16.1 mph - N/A   Clear
1:15 AM 19.4 °F 4.1 °F 10.4 °F 68% 29.64 in 10.0 mi SSW 18.4 mph 24.2 mph N/A   Clear
1:35 AM 19.4 °F 4.5 °F 12.2 °F 74% 29.63 in 10.0 mi SSW 17.3 mph 24.2 mph N/A   Clear
1:55 AM 19.4 °F 5.0 °F 12.2 °F 74% 29.63 in 10.0 mi SSW 16.1 mph 21.9 mph N/A   Partly Cloudy
2:15 AM 19.4 °F 5.0 °F 12.2 °F 74% 29.62 in 10.0 mi SSW 16.1 mph 21.9 mph N/A   Partly Cloudy
2:35 AM 21.2 °F 6.8 °F 12.2 °F 68% 29.61 in 10.0 mi South 17.3 mph 24.2 mph N/A   Scattered Clouds
2:55 AM 21.2 °F 6.4 °F 12.2 °F 68% 29.60 in 10.0 mi South 18.4 mph 24.2 mph N/A   Overcast
3:15 AM 21.2 °F 6.0 °F 12.2 °F 68% 29.59 in 10.0 mi SSW 19.6 mph 27.6 mph N/A   Overcast
3:35 AM 23.0 °F 6.9 °F 14.0 °F 68% 29.58 in 10.0 mi SSW 24.2 mph 34.5 mph N/A   Overcast
3:55 AM 23.0 °F 7.2 °F 14.0 °F 68% 29.58 in 10.0 mi SSW 23.0 mph 27.6 mph N/A   Overcast
4:15 AM 23.0 °F 7.2 °F 14.0 °F 68% 29.58 in 10.0 mi SSW 23.0 mph 29.9 mph N/A   Overcast
4:35 AM 23.0 °F 7.2 °F 15.8 °F 74% 29.57 in 10.0 mi SSW 23.0 mph 31.1 mph N/A   Overcast
4:55 AM 24.8 °F 10.0 °F 15.8 °F 69% 29.57 in 10.0 mi SSW 21.9 mph 28.8 mph N/A   Overcast
5:15 AM 24.8 °F 10.3 °F 15.8 °F 69% 29.59 in 10.0 mi SSW 20.7 mph - N/A   Overcast
5:35 AM 24.8 °F 10.7 °F 15.8 °F 69% 29.60 in 10.0 mi SW 19.6 mph 28.8 mph N/A   Overcast
5:55 AM 24.8 °F 10.0 °F 15.8 °F 69% 29.58 in 10.0 mi SW 21.9 mph 29.9 mph N/A   Overcast
6:15 AM 24.8 °F 11.9 °F 15.8 °F 69% 29.60 in 10.0 mi SW 16.1 mph 28.8 mph N/A   Overcast
6:35 AM 24.8 °F 11.1 °F 15.8 °F 69% 29.61 in 10.0 mi SSW 18.4 mph 25.3 mph N/A   Overcast
6:55 AM 24.8 °F 10.7 °F 15.8 °F 69% 29.59 in 10.0 mi SSW 19.6 mph 26.5 mph N/A   Overcast
7:15 AM 24.8 °F 11.1 °F 15.8 °F 69% 29.59 in 10.0 mi SSW 18.4 mph 27.6 mph N/A   Overcast
7:35 AM 24.8 °F 11.5 °F 15.8 °F 69% 29.61 in 10.0 mi SW 17.3 mph - N/A   Overcast
7:55 AM 24.8 °F 11.9 °F 17.6 °F 74% 29.62 in 10.0 mi SSW 16.1 mph - N/A   Overcast
8:15 AM 24.8 °F 12.9 °F 17.6 °F 74% 29.64 in 10.0 mi SW 13.8 mph 23.0 mph N/A   Overcast
8:35 AM 24.8 °F 11.9 °F 17.6 °F 74% 29.64 in 10.0 mi SW 16.1 mph 21.9 mph N/A   Overcast
8:55 AM 24.8 °F 11.9 °F 17.6 °F 74% 29.65 in 10.0 mi SW 16.1 mph 20.7 mph N/A   Overcast
9:15 AM 24.8 °F 14.0 °F 17.6 °F 74% 29.65 in 10.0 mi SW 11.5 mph - N/A   Overcast
9:35 AM 26.6 °F 15.7 °F 17.6 °F 69% 29.66 in 10.0 mi SW 12.7 mph - N/A   Overcast
9:55 AM 26.6 °F 16.2 °F 17.6 °F 69% 29.67 in 10.0 mi SW 11.5 mph - N/A   Overcast
10:15 AM 26.6 °F 15.7 °F 17.6 °F 69% 29.68 in 10.0 mi SW 12.7 mph - N/A   Overcast
10:35 AM 26.6 °F 16.2 °F 19.4 °F 74% 29.69 in 10.0 mi SW 11.5 mph - N/A   Overcast
10:55 AM 26.6 °F 15.2 °F 19.4 °F 74% 29.69 in 10.0 mi WSW 13.8 mph 19.6 mph N/A   Overcast
11:15 AM 26.6 °F 14.7 °F 19.4 °F 74% 29.69 in 10.0 mi WSW 15.0 mph - N/A   Overcast
11:35 AM 28.4 °F 18.0 °F 19.4 °F 69% 29.69 in 10.0 mi WSW 12.7 mph 17.3 mph N/A   Overcast
11:55 AM 28.4 °F 19.7 °F 19.4 °F 69% 29.69 in 10.0 mi WSW 9.2 mph - N/A   Overcast
12:15 PM 28.4 °F 19.7 °F 19.4 °F 69% 29.71 in 10.0 mi WSW 9.2 mph - N/A   Overcast
12:35 PM 28.4 °F 21.2 °F 21.2 °F 74% 29.72 in 10.0 mi WSW 6.9 mph - N/A   Overcast
12:55 PM 28.4 °F 20.4 °F 21.2 °F 74% 29.73 in 10.0 mi West 8.1 mph - N/A   Overcast
1:15 PM 28.4 °F 21.2 °F 21.2 °F 74% 29.74 in 10.0 mi West 6.9 mph - N/A   Overcast
1:35 PM 28.4 °F 20.4 °F 21.2 °F 74% 29.75 in 10.0 mi WNW 8.1 mph - N/A   Overcast
1:55 PM 28.4 °F 19.7 °F 21.2 °F 74% 29.75 in 10.0 mi WNW 9.2 mph - N/A   Overcast
2:15 PM 28.4 °F 20.4 °F 21.2 °F 74% 29.76 in 10.0 mi NW 8.1 mph - N/A   Overcast
2:35 PM 28.4 °F 21.2 °F 21.2 °F 74% 29.79 in 10.0 mi WNW 6.9 mph - N/A   Overcast
2:55 PM 28.4 °F 20.4 °F 21.2 °F 74% 29.80 in 10.0 mi NNW 8.1 mph - N/A   Overcast
3:15 PM 28.4 °F 19.1 °F 21.2 °F 74% 29.82 in 10.0 mi NNW 10.4 mph - N/A   Overcast
3:35 PM 28.4 °F 19.1 °F 19.4 °F 69% 29.84 in 10.0 mi NNW 10.4 mph - N/A   Overcast
3:55 PM 26.6 °F 17.5 °F 19.4 °F 74% 29.85 in 10.0 mi NW 9.2 mph - N/A   Overcast
4:15 PM 26.6 °F 17.5 °F 19.4 °F 74% 29.87 in 10.0 mi NNW 9.2 mph - N/A   Overcast
4:35 PM 26.6 °F 16.8 °F 15.8 °F 64% 29.88 in 10.0 mi NNW 10.4 mph - N/A   Overcast
4:55 PM 24.8 °F 14.0 °F 15.8 °F 69% 29.89 in 10.0 mi NNW 11.5 mph - N/A   Overcast
5:15 PM 24.8 °F 14.0 °F 14.0 °F 64% 29.90 in 10.0 mi NNW 11.5 mph - N/A   Overcast
5:35 PM 21.2 °F 8.3 °F 12.2 °F 68% 29.91 in 10.0 mi NNW 13.8 mph - N/A   Mostly Cloudy
5:55 PM 21.2 °F 9.5 °F 12.2 °F 68% 29.93 in 10.0 mi North 11.5 mph - N/A   Partly Cloudy
6:15 PM 19.4 °F 7.2 °F 10.4 °F 68% 29.95 in 10.0 mi NNW 11.5 mph - N/A   Clear
6:35 PM 19.4 °F 6.6 °F 10.4 °F 68% 29.96 in 10.0 mi NNW 12.7 mph - N/A   Partly Cloudy
6:55 PM 19.4 °F 7.9 °F 8.6 °F 63% 29.98 in 10.0 mi NNW 10.4 mph - N/A   Clear
7:15 PM 17.6 °F 5.7 °F 8.6 °F 68% 30.00 in 10.0 mi NNW 10.4 mph - N/A   Clear
7:35 PM 17.6 °F 6.4 °F 8.6 °F 68% 30.00 in 10.0 mi NNW 9.2 mph - N/A   Clear
7:55 PM 15.8 °F 6.1 °F 8.6 °F 73% 30.01 in 10.0 mi NNW 6.9 mph - N/A   Clear
8:15 PM 15.8 °F 3.4 °F 6.8 °F 68% 30.02 in 10.0 mi NNW 10.4 mph - N/A   Clear
8:35 PM 15.8 °F 4.2 °F 8.6 °F 73% 30.03 in 10.0 mi NNW 9.2 mph - N/A   Clear
8:55 PM 15.8 °F 2.7 °F 6.8 °F 68% 30.03 in 10.0 mi NNW 11.5 mph - N/A   Clear
9:15 PM 15.8 °F 2.7 °F 6.8 °F 68% 30.04 in 10.0 mi NNW 11.5 mph - N/A   Clear
9:35 PM 14.0 °F 2.9 °F 6.8 °F 73% 30.04 in 10.0 mi NNW 8.1 mph - N/A   Clear
9:55 PM 14.0 °F 2.0 °F 5.0 °F 67% 30.04 in 10.0 mi NNW 9.2 mph - N/A   Clear
10:15 PM 12.2 °F -0.2 °F 5.0 °F 73% 30.04 in 10.0 mi NNW 9.2 mph - N/A   Clear
10:35 PM 12.2 °F -1.0 °F 3.2 °F 67% 30.05 in 10.0 mi NNW 10.4 mph - N/A   Clear
10:55 PM 12.2 °F 0.7 °F 5.0 °F 73% 30.05 in 10.0 mi NW 8.1 mph - N/A   Clear
11:15 PM 12.2 °F -0.2 °F 3.2 °F 67% 30.06 in 10.0 mi NNW 9.2 mph - N/A   Clear
11:35 PM 12.2 °F 1.7 °F 3.2 °F 67% 30.06 in 10.0 mi NNW 6.9 mph - N/A   Clear
11:55 PM 12.2 °F 0.7 °F 3.2 °F 67% 30.06 in 10.0 mi NNW 8.1 mph - N/A   Clear